Year,Month,Day,Hour,Minute,Value (Times are PST for temperature in C)
2022,03,31,00,00,5.80
2022,03,31,00,01,5.80
2022,03,31,00,02,5.80
2022,03,31,00,03,5.80
2022,03,31,00,04,5.80
2022,03,31,00,05,5.80
2022,03,31,00,06,5.80
2022,03,31,00,07,5.90
2022,03,31,00,08,5.90
2022,03,31,00,09,5.90
2022,03,31,00,10,5.90
2022,03,31,00,11,5.90
2022,03,31,00,12,5.80
2022,03,31,00,13,5.80
2022,03,31,00,14,5.80
2022,03,31,00,15,5.90
2022,03,31,00,16,5.90
2022,03,31,00,17,5.90
2022,03,31,00,18,5.90
2022,03,31,00,19,5.90
2022,03,31,00,20,5.90
2022,03,31,00,21,5.90
2022,03,31,00,22,5.80
2022,03,31,00,23,5.80
2022,03,31,00,24,5.80
2022,03,31,00,25,5.80
2022,03,31,00,26,5.80
2022,03,31,00,27,5.80
2022,03,31,00,28,5.80
2022,03,31,00,29,5.80
2022,03,31,00,30,5.80
2022,03,31,00,31,5.80
2022,03,31,00,32,5.80
2022,03,31,00,33,5.80
2022,03,31,00,34,5.70
2022,03,31,00,35,5.70
2022,03,31,00,36,5.70
2022,03,31,00,37,5.70
2022,03,31,00,38,5.60
2022,03,31,00,39,5.60
2022,03,31,00,40,5.60
2022,03,31,00,41,5.60
2022,03,31,00,42,5.50
2022,03,31,00,43,5.50
2022,03,31,00,44,5.50
2022,03,31,00,45,5.40
2022,03,31,00,46,5.40
2022,03,31,00,47,5.40
2022,03,31,00,48,5.40
2022,03,31,00,49,5.40
2022,03,31,00,50,5.30
2022,03,31,00,51,5.30
2022,03,31,00,52,5.30
2022,03,31,00,53,5.30
2022,03,31,00,54,5.20
2022,03,31,00,55,5.20
2022,03,31,00,56,5.10
2022,03,31,00,57,5.10
2022,03,31,00,58,5.10
2022,03,31,00,59,5.10
2022,03,31,01,00,5.00
2022,03,31,01,01,5.00
2022,03,31,01,02,5.00
2022,03,31,01,03,4.90
2022,03,31,01,04,4.90
2022,03,31,01,05,4.90
2022,03,31,01,06,4.90
2022,03,31,01,07,4.80
2022,03,31,01,08,4.80
2022,03,31,01,09,4.80
2022,03,31,01,10,4.70
2022,03,31,01,11,4.70
2022,03,31,01,12,4.70
2022,03,31,01,13,4.70
2022,03,31,01,14,4.70
2022,03,31,01,15,4.60
2022,03,31,01,16,4.60
2022,03,31,01,17,4.60
2022,03,31,01,18,4.60
2022,03,31,01,19,4.50
2022,03,31,01,20,4.50
2022,03,31,01,21,4.50
2022,03,31,01,22,4.40
2022,03,31,01,23,4.40
2022,03,31,01,24,4.40
2022,03,31,01,25,4.40
2022,03,31,01,26,4.40
2022,03,31,01,27,4.40
2022,03,31,01,28,4.30
2022,03,31,01,29,4.30
2022,03,31,01,30,4.30
2022,03,31,01,31,4.30
2022,03,31,01,32,4.30
2022,03,31,01,33,4.30
2022,03,31,01,34,4.30
2022,03,31,01,35,4.30
2022,03,31,01,36,4.30
2022,03,31,01,37,4.30
2022,03,31,01,38,4.30
2022,03,31,01,39,4.30
2022,03,31,01,40,4.30
2022,03,31,01,41,4.30
2022,03,31,01,42,4.30
2022,03,31,01,43,4.30
2022,03,31,01,44,4.30
2022,03,31,01,45,4.30
2022,03,31,01,46,4.30
2022,03,31,01,47,4.30
2022,03,31,01,48,4.30
2022,03,31,01,49,4.30
2022,03,31,01,50,4.30
2022,03,31,01,51,4.30
2022,03,31,01,52,4.30
2022,03,31,01,53,4.30
2022,03,31,01,54,4.30
2022,03,31,01,55,4.30
2022,03,31,01,56,4.30
2022,03,31,01,57,4.20
2022,03,31,01,58,4.20
2022,03,31,01,59,4.20
2022,03,31,02,00,4.20
2022,03,31,02,01,4.20
2022,03,31,02,02,4.20
2022,03,31,02,03,4.20
2022,03,31,02,04,4.20
2022,03,31,02,05,4.20
2022,03,31,02,06,4.20
2022,03,31,02,07,4.20
2022,03,31,02,08,4.20
2022,03,31,02,09,4.20
2022,03,31,02,10,4.20
2022,03,31,02,11,4.20
2022,03,31,02,12,4.20
2022,03,31,02,13,4.20
2022,03,31,02,14,4.20
2022,03,31,02,15,4.20
2022,03,31,02,16,4.20
2022,03,31,02,17,4.20
2022,03,31,02,18,4.20
2022,03,31,02,19,4.20
2022,03,31,02,20,4.20
2022,03,31,02,21,4.20
2022,03,31,02,22,4.20
2022,03,31,02,23,4.20
2022,03,31,02,24,4.20
2022,03,31,02,25,4.20
2022,03,31,02,26,4.20
2022,03,31,02,27,4.20
2022,03,31,02,28,4.20
2022,03,31,02,29,4.20
2022,03,31,02,30,4.20
2022,03,31,02,31,4.20
2022,03,31,02,32,4.20
2022,03,31,02,33,4.20
2022,03,31,02,34,4.20
2022,03,31,02,35,4.20
2022,03,31,02,36,4.20
2022,03,31,02,37,4.20
2022,03,31,02,38,4.20
2022,03,31,02,39,4.20
2022,03,31,02,40,4.20
2022,03,31,02,41,4.20
2022,03,31,02,42,4.20
2022,03,31,02,43,4.20
2022,03,31,02,44,4.20
2022,03,31,02,45,4.20
2022,03,31,02,46,4.20
2022,03,31,02,47,4.20
2022,03,31,02,48,4.20
2022,03,31,02,49,4.20
2022,03,31,02,50,4.20
2022,03,31,02,51,4.20
2022,03,31,02,52,4.20
2022,03,31,02,53,4.20
2022,03,31,02,54,4.20
2022,03,31,02,55,4.20
2022,03,31,02,56,4.10
2022,03,31,02,57,4.10
2022,03,31,02,58,4.10
2022,03,31,02,59,4.10
2022,03,31,03,00,4.10
2022,03,31,03,01,4.10
2022,03,31,03,02,4.10
2022,03,31,03,03,4.10
2022,03,31,03,04,4.10
2022,03,31,03,05,4.10
2022,03,31,03,06,4.10
2022,03,31,03,07,4.10
2022,03,31,03,08,4.10
2022,03,31,03,09,4.10
2022,03,31,03,10,4.10
2022,03,31,03,11,4.20
2022,03,31,03,12,4.20
2022,03,31,03,13,4.20
2022,03,31,03,14,4.20
2022,03,31,03,15,4.20
2022,03,31,03,16,4.20
2022,03,31,03,17,4.20
2022,03,31,03,18,4.20
2022,03,31,03,19,4.20
2022,03,31,03,20,4.20
2022,03,31,03,21,4.30
2022,03,31,03,22,4.30
2022,03,31,03,23,4.30
2022,03,31,03,24,4.30
2022,03,31,03,25,4.30
2022,03,31,03,26,4.30
2022,03,31,03,27,4.30
2022,03,31,03,28,4.30
2022,03,31,03,29,4.30
2022,03,31,03,30,4.40
2022,03,31,03,31,4.40
2022,03,31,03,32,4.40
2022,03,31,03,33,4.40
2022,03,31,03,34,4.40
2022,03,31,03,35,4.40
2022,03,31,03,36,4.40
2022,03,31,03,37,4.40
2022,03,31,03,38,4.40
2022,03,31,03,39,4.40
2022,03,31,03,40,4.40
2022,03,31,03,41,4.40
2022,03,31,03,42,4.40
2022,03,31,03,43,4.40
2022,03,31,03,44,4.40
2022,03,31,03,45,4.40
2022,03,31,03,46,4.40
2022,03,31,03,47,4.40
2022,03,31,03,48,4.40
2022,03,31,03,49,4.40
2022,03,31,03,50,4.40
2022,03,31,03,51,4.50
2022,03,31,03,52,4.40
2022,03,31,03,53,4.50
2022,03,31,03,54,4.50
2022,03,31,03,55,4.50
2022,03,31,03,56,4.50
2022,03,31,03,57,4.50
2022,03,31,03,58,4.50
2022,03,31,03,59,4.50
2022,03,31,04,00,4.50
2022,03,31,04,01,4.50
2022,03,31,04,02,4.50
2022,03,31,04,03,4.50
2022,03,31,04,04,4.50
2022,03,31,04,05,4.50
2022,03,31,04,06,4.60
2022,03,31,04,07,4.60
2022,03,31,04,08,4.60
2022,03,31,04,09,4.60
2022,03,31,04,10,4.60
2022,03,31,04,11,4.60
2022,03,31,04,12,4.60
2022,03,31,04,13,4.60
2022,03,31,04,14,4.60
2022,03,31,04,15,4.60
2022,03,31,04,16,4.60
2022,03,31,04,17,4.60
2022,03,31,04,18,4.60
2022,03,31,04,19,4.60
2022,03,31,04,20,4.60
2022,03,31,04,21,4.60
2022,03,31,04,22,4.60
2022,03,31,04,23,4.60
2022,03,31,04,24,4.60
2022,03,31,04,25,4.60
2022,03,31,04,26,4.60
2022,03,31,04,27,4.60
2022,03,31,04,28,4.60
2022,03,31,04,29,4.60
2022,03,31,04,30,4.60
2022,03,31,04,31,4.60
2022,03,31,04,32,4.60
2022,03,31,04,33,4.60
2022,03,31,04,34,4.60
2022,03,31,04,35,4.60
2022,03,31,04,36,4.50
2022,03,31,04,37,4.60
2022,03,31,04,38,4.50
2022,03,31,04,39,4.50
2022,03,31,04,40,4.50
2022,03,31,04,41,4.50
2022,03,31,04,42,4.50
2022,03,31,04,43,4.50
2022,03,31,04,44,4.50
2022,03,31,04,45,4.50
2022,03,31,04,46,4.50
2022,03,31,04,47,4.50
2022,03,31,04,48,4.50
2022,03,31,04,49,4.50
2022,03,31,04,50,4.50
2022,03,31,04,51,4.50
2022,03,31,04,52,4.50
2022,03,31,04,53,4.50
2022,03,31,04,54,4.50
2022,03,31,04,55,4.50
2022,03,31,04,56,4.50
2022,03,31,04,57,4.50
2022,03,31,04,58,4.50
2022,03,31,04,59,4.50
2022,03,31,05,00,4.50
2022,03,31,05,01,4.50
2022,03,31,05,02,4.50
2022,03,31,05,03,4.50
2022,03,31,05,04,4.60
2022,03,31,05,05,4.60
2022,03,31,05,06,4.60
2022,03,31,05,07,4.60
2022,03,31,05,08,4.60
2022,03,31,05,09,4.60
2022,03,31,05,10,4.60
2022,03,31,05,11,4.60
2022,03,31,05,12,4.60
2022,03,31,05,13,4.60
2022,03,31,05,14,4.60
2022,03,31,05,15,4.60
2022,03,31,05,16,4.60
2022,03,31,05,17,4.60
2022,03,31,05,18,4.60
2022,03,31,05,19,4.60
2022,03,31,05,20,4.70
2022,03,31,05,21,4.70
2022,03,31,05,22,4.70
2022,03,31,05,23,4.70
2022,03,31,05,24,4.70
2022,03,31,05,25,4.70
2022,03,31,05,26,4.70
2022,03,31,05,27,4.70
2022,03,31,05,28,4.70
2022,03,31,05,29,4.70
2022,03,31,05,30,4.70
2022,03,31,05,31,4.70
2022,03,31,05,32,4.70
2022,03,31,05,33,4.70
2022,03,31,05,34,4.70
2022,03,31,05,35,4.70
2022,03,31,05,36,4.70
2022,03,31,05,37,4.70
2022,03,31,05,38,4.70
2022,03,31,05,39,4.70
2022,03,31,05,40,4.70
2022,03,31,05,41,4.70
2022,03,31,05,42,4.70
2022,03,31,05,43,4.80
2022,03,31,05,44,4.80
2022,03,31,05,45,4.80
2022,03,31,05,46,4.80
2022,03,31,05,47,4.80
2022,03,31,05,48,4.80
2022,03,31,05,49,4.80
2022,03,31,05,50,4.80
2022,03,31,05,51,4.80
2022,03,31,05,52,4.80
2022,03,31,05,53,4.80
2022,03,31,05,54,4.80
2022,03,31,05,55,4.80
2022,03,31,05,56,4.80
2022,03,31,05,57,4.80
2022,03,31,05,58,4.80
2022,03,31,05,59,4.80
2022,03,31,06,00,4.80
2022,03,31,06,01,4.90
2022,03,31,06,02,4.90
2022,03,31,06,03,4.90
2022,03,31,06,04,4.90
2022,03,31,06,05,4.90
2022,03,31,06,06,4.90
2022,03,31,06,07,4.90
2022,03,31,06,08,4.90
2022,03,31,06,09,4.90
2022,03,31,06,10,4.90
2022,03,31,06,11,4.90
2022,03,31,06,12,4.90
2022,03,31,06,13,4.90
2022,03,31,06,14,4.90
2022,03,31,06,15,4.90
2022,03,31,06,16,4.90
2022,03,31,06,17,4.90
2022,03,31,06,18,4.90
2022,03,31,06,19,4.90
2022,03,31,06,20,4.90
2022,03,31,06,21,4.90
2022,03,31,06,22,4.90
2022,03,31,06,23,4.90
2022,03,31,06,24,4.90
2022,03,31,06,25,4.90
2022,03,31,06,26,4.90
2022,03,31,06,27,4.90
2022,03,31,06,28,4.90
2022,03,31,06,29,4.90
2022,03,31,06,30,4.90
2022,03,31,06,31,4.90
2022,03,31,06,32,5.00
2022,03,31,06,33,5.00
2022,03,31,06,34,5.00
2022,03,31,06,35,5.00
2022,03,31,06,36,5.00
2022,03,31,06,37,5.00
2022,03,31,06,38,5.00
2022,03,31,06,39,5.00
2022,03,31,06,40,5.00
2022,03,31,06,41,5.00
2022,03,31,06,42,5.00
2022,03,31,06,43,5.00
2022,03,31,06,44,5.00
2022,03,31,06,45,5.00
2022,03,31,06,46,5.00
2022,03,31,06,47,5.00
2022,03,31,06,48,4.90
2022,03,31,06,49,4.90
2022,03,31,06,50,4.90
2022,03,31,06,51,4.90
2022,03,31,06,52,4.90
2022,03,31,06,53,4.90
2022,03,31,06,54,4.90
2022,03,31,06,55,4.90
2022,03,31,06,56,4.90
2022,03,31,06,57,4.90
2022,03,31,06,58,4.90
2022,03,31,06,59,4.90
2022,03,31,07,00,4.90
2022,03,31,07,01,4.90
2022,03,31,07,02,4.90
2022,03,31,07,03,4.90
2022,03,31,07,04,4.90
2022,03,31,07,05,4.90
2022,03,31,07,06,4.90
2022,03,31,07,07,4.90
2022,03,31,07,08,4.90
2022,03,31,07,09,4.90
2022,03,31,07,10,4.90
2022,03,31,07,11,4.90
2022,03,31,07,12,4.90
2022,03,31,07,13,4.90
2022,03,31,07,14,4.90
2022,03,31,07,15,4.90
2022,03,31,07,16,4.90
2022,03,31,07,17,4.90
2022,03,31,07,18,4.90
2022,03,31,07,19,4.90
2022,03,31,07,20,4.90
2022,03,31,07,21,4.90
2022,03,31,07,22,5.00
2022,03,31,07,23,5.00
2022,03,31,07,24,5.00
2022,03,31,07,25,5.00
2022,03,31,07,26,5.00
2022,03,31,07,27,5.00
2022,03,31,07,28,5.00
2022,03,31,07,29,5.00
2022,03,31,07,30,5.10
2022,03,31,07,31,5.10
2022,03,31,07,32,5.10
2022,03,31,07,33,5.10
2022,03,31,07,34,5.20
2022,03,31,07,35,5.20
2022,03,31,07,36,5.30
2022,03,31,07,37,5.40
2022,03,31,07,38,5.50
2022,03,31,07,39,5.50
2022,03,31,07,40,5.60
2022,03,31,07,41,5.60
2022,03,31,07,42,5.70
2022,03,31,07,43,5.70
2022,03,31,07,44,5.70
2022,03,31,07,45,5.80
2022,03,31,07,46,5.80
2022,03,31,07,47,5.80
2022,03,31,07,48,5.80
2022,03,31,07,49,5.80
2022,03,31,07,50,5.80
2022,03,31,07,51,5.80
2022,03,31,07,52,5.80
2022,03,31,07,53,5.80
2022,03,31,07,54,5.80
2022,03,31,07,55,5.80
2022,03,31,07,56,5.80
2022,03,31,07,57,5.80
2022,03,31,07,58,5.80
2022,03,31,07,59,5.80
2022,03,31,08,00,5.80
2022,03,31,08,01,5.80
2022,03,31,08,02,5.80
2022,03,31,08,03,5.90
2022,03,31,08,04,5.90
2022,03,31,08,05,5.90
2022,03,31,08,06,6.00
2022,03,31,08,07,6.00
2022,03,31,08,08,6.10
2022,03,31,08,09,6.10
2022,03,31,08,10,6.10
2022,03,31,08,11,6.20
2022,03,31,08,12,6.20
2022,03,31,08,13,6.20
2022,03,31,08,14,6.20
2022,03,31,08,15,6.20
2022,03,31,08,16,6.20
2022,03,31,08,17,6.30
2022,03,31,08,18,6.30
2022,03,31,08,19,6.30
2022,03,31,08,20,6.30
2022,03,31,08,21,6.40
2022,03,31,08,22,6.50
2022,03,31,08,23,6.50
2022,03,31,08,24,6.60
2022,03,31,08,25,6.70
2022,03,31,08,26,6.70
2022,03,31,08,27,6.80
2022,03,31,08,28,6.80
2022,03,31,08,29,6.90
2022,03,31,08,30,7.00
2022,03,31,08,31,7.10
2022,03,31,08,32,7.20
2022,03,31,08,33,7.20
2022,03,31,08,34,7.30
2022,03,31,08,35,7.40
2022,03,31,08,36,7.50
2022,03,31,08,37,7.60
2022,03,31,08,38,7.60
2022,03,31,08,39,7.70
2022,03,31,08,40,7.80
2022,03,31,08,41,7.90
2022,03,31,08,42,8.00
2022,03,31,08,43,8.10
2022,03,31,08,44,8.20
2022,03,31,08,45,8.30
2022,03,31,08,46,8.30
2022,03,31,08,47,8.40
2022,03,31,08,48,8.50
2022,03,31,08,49,8.50
2022,03,31,08,50,8.50
2022,03,31,08,51,8.60
2022,03,31,08,52,8.60
2022,03,31,08,53,8.70
2022,03,31,08,54,8.70
2022,03,31,08,55,8.70
2022,03,31,08,56,8.70
2022,03,31,08,57,8.70
2022,03,31,08,58,8.70
2022,03,31,08,59,8.70
2022,03,31,09,00,8.70
2022,03,31,09,01,8.80
2022,03,31,09,02,8.80
2022,03,31,09,03,8.80
2022,03,31,09,04,8.80
2022,03,31,09,05,8.80
2022,03,31,09,06,8.80
2022,03,31,09,07,8.80
2022,03,31,09,08,8.80
2022,03,31,09,09,8.80
2022,03,31,09,10,8.70
2022,03,31,09,11,8.70
2022,03,31,09,12,8.70
2022,03,31,09,13,8.70
2022,03,31,09,14,8.70
2022,03,31,09,15,8.70
2022,03,31,09,16,8.70
2022,03,31,09,17,8.70
2022,03,31,09,18,8.60
2022,03,31,09,19,8.60
2022,03,31,09,20,8.60
2022,03,31,09,21,8.70
2022,03,31,09,22,8.70
2022,03,31,09,23,8.70
2022,03,31,09,24,8.70
2022,03,31,09,25,8.70
2022,03,31,09,26,8.70
2022,03,31,09,27,8.70
2022,03,31,09,28,8.70
2022,03,31,09,29,8.60
2022,03,31,09,30,8.60
2022,03,31,09,31,8.60
2022,03,31,09,32,8.60
2022,03,31,09,33,8.50
2022,03,31,09,34,8.50
2022,03,31,09,35,8.40
2022,03,31,09,36,8.40
2022,03,31,09,37,8.40
2022,03,31,09,38,8.30
2022,03,31,09,39,8.30
2022,03,31,09,40,8.30
2022,03,31,09,41,8.30
2022,03,31,09,42,8.20
2022,03,31,09,43,8.20
2022,03,31,09,44,8.20
2022,03,31,09,45,8.20
2022,03,31,09,46,8.20
2022,03,31,09,47,8.20
2022,03,31,09,48,8.10
2022,03,31,09,49,8.10
2022,03,31,09,50,8.10
2022,03,31,09,51,8.10
2022,03,31,09,52,8.10
2022,03,31,09,53,8.10
2022,03,31,09,54,8.10
2022,03,31,09,55,8.10
2022,03,31,09,56,8.10
2022,03,31,09,57,8.10
2022,03,31,09,58,8.10
2022,03,31,09,59,8.10
2022,03,31,10,00,8.10
2022,03,31,10,01,8.10
2022,03,31,10,02,8.20
2022,03,31,10,03,8.20
2022,03,31,10,04,8.30
2022,03,31,10,05,8.30
2022,03,31,10,06,8.40
2022,03,31,10,07,8.50
2022,03,31,10,08,8.50
2022,03,31,10,09,8.60
2022,03,31,10,10,8.70
2022,03,31,10,11,8.80
2022,03,31,10,12,8.90
2022,03,31,10,13,9.00
2022,03,31,10,14,9.10
2022,03,31,10,15,9.30
2022,03,31,10,16,9.40
2022,03,31,10,17,9.60
2022,03,31,10,18,9.70
2022,03,31,10,19,9.80
2022,03,31,10,20,9.80
2022,03,31,10,21,9.90
2022,03,31,10,22,9.90
2022,03,31,10,23,9.90
2022,03,31,10,24,9.80
2022,03,31,10,25,9.80
2022,03,31,10,26,9.80
2022,03,31,10,27,9.80
2022,03,31,10,28,9.80
2022,03,31,10,29,9.80
2022,03,31,10,30,9.80
2022,03,31,10,31,9.80
2022,03,31,10,32,9.80
2022,03,31,10,33,9.90
2022,03,31,10,34,10.00
2022,03,31,10,35,10.10
2022,03,31,10,36,10.10
2022,03,31,10,37,10.20
2022,03,31,10,38,10.20
2022,03,31,10,39,10.30
2022,03,31,10,40,10.40
2022,03,31,10,41,10.50
2022,03,31,10,42,10.50
2022,03,31,10,43,10.50
2022,03,31,10,44,10.60
2022,03,31,10,45,10.60
2022,03,31,10,46,10.60
2022,03,31,10,47,10.60
2022,03,31,10,48,10.60
2022,03,31,10,49,10.70
2022,03,31,10,50,10.70
2022,03,31,10,51,10.80
2022,03,31,10,52,10.80
2022,03,31,10,53,10.90
2022,03,31,10,54,11.00
2022,03,31,10,55,11.00
2022,03,31,10,56,10.90
2022,03,31,10,57,10.90
2022,03,31,10,58,10.80
2022,03,31,10,59,10.70
2022,03,31,11,00,10.70
2022,03,31,11,01,10.70
2022,03,31,11,02,10.70
2022,03,31,11,03,10.70
2022,03,31,11,04,10.70
2022,03,31,11,05,10.70
2022,03,31,11,06,10.80
2022,03,31,11,07,10.80
2022,03,31,11,08,10.80
2022,03,31,11,09,10.80
2022,03,31,11,10,10.90
2022,03,31,11,11,10.90
2022,03,31,11,12,11.00
2022,03,31,11,13,11.00
2022,03,31,11,14,11.10
2022,03,31,11,15,11.10
2022,03,31,11,16,11.10
2022,03,31,11,17,11.10
2022,03,31,11,18,11.20
2022,03,31,11,19,11.20
2022,03,31,11,20,11.20
2022,03,31,11,21,11.30
2022,03,31,11,22,11.30
2022,03,31,11,23,11.30
2022,03,31,11,24,11.30
2022,03,31,11,25,11.30
2022,03,31,11,26,11.30
2022,03,31,11,27,11.30
2022,03,31,11,28,11.30
2022,03,31,11,29,11.20
2022,03,31,11,30,11.10
2022,03,31,11,31,11.00
2022,03,31,11,32,11.00
2022,03,31,11,33,10.90
2022,03,31,11,34,10.80
2022,03,31,11,35,10.80
2022,03,31,11,36,10.80
2022,03,31,11,37,10.90
2022,03,31,11,38,10.90
2022,03,31,11,39,10.90
2022,03,31,11,40,10.90
2022,03,31,11,41,10.90
2022,03,31,11,42,10.90
2022,03,31,11,43,10.80
2022,03,31,11,44,10.80
2022,03,31,11,45,10.80
2022,03,31,11,46,10.80
2022,03,31,11,47,10.90
2022,03,31,11,48,10.90
2022,03,31,11,49,10.90
2022,03,31,11,50,10.90
2022,03,31,11,51,11.00
2022,03,31,11,52,11.10
2022,03,31,11,53,11.10
2022,03,31,11,54,11.20
2022,03,31,11,55,11.30
2022,03,31,11,56,11.40
2022,03,31,11,57,11.40
2022,03,31,11,58,11.50
2022,03,31,11,59,11.60
2022,03,31,12,00,11.70
2022,03,31,12,01,11.80
2022,03,31,12,02,11.90
2022,03,31,12,03,12.00
2022,03,31,12,04,12.10
2022,03,31,12,05,12.20
2022,03,31,12,06,12.30
2022,03,31,12,07,12.30
2022,03,31,12,08,12.30
2022,03,31,12,09,12.30
2022,03,31,12,10,12.20
2022,03,31,12,11,12.10
2022,03,31,12,12,12.00
2022,03,31,12,13,11.90
2022,03,31,12,14,11.90
2022,03,31,12,15,11.80
2022,03,31,12,16,11.80
2022,03,31,12,17,11.70
2022,03,31,12,18,11.70
2022,03,31,12,19,11.60
2022,03,31,12,20,11.50
2022,03,31,12,21,11.40
2022,03,31,12,22,11.40
2022,03,31,12,23,11.50
2022,03,31,12,24,11.60
2022,03,31,12,25,11.70
2022,03,31,12,26,11.80
2022,03,31,12,27,12.00
2022,03,31,12,28,12.10
2022,03,31,12,29,12.20
2022,03,31,12,30,12.30
2022,03,31,12,31,12.40
2022,03,31,12,32,12.40
2022,03,31,12,33,12.50
2022,03,31,12,34,12.60
2022,03,31,12,35,12.70
2022,03,31,12,36,12.60
2022,03,31,12,37,12.60
2022,03,31,12,38,12.50
2022,03,31,12,39,12.50
2022,03,31,12,40,12.40
2022,03,31,12,41,12.20
2022,03,31,12,42,12.20
2022,03,31,12,43,12.00
2022,03,31,12,44,11.80
2022,03,31,12,45,11.70
2022,03,31,12,46,11.60
2022,03,31,12,47,11.50
2022,03,31,12,48,11.40
2022,03,31,12,49,11.30
2022,03,31,12,50,11.30
2022,03,31,12,51,11.20
2022,03,31,12,52,11.20
2022,03,31,12,53,11.20
2022,03,31,12,54,11.20
2022,03,31,12,55,11.30
2022,03,31,12,56,11.30
2022,03,31,12,57,11.40
2022,03,31,12,58,11.40
2022,03,31,12,59,11.30
2022,03,31,13,00,11.30
2022,03,31,13,01,11.20
2022,03,31,13,02,11.20
2022,03,31,13,03,11.10
2022,03,31,13,04,11.10
2022,03,31,13,05,11.10
2022,03,31,13,06,11.20
2022,03,31,13,07,11.20
2022,03,31,13,08,11.20
2022,03,31,13,09,11.20
2022,03,31,13,10,11.30
2022,03,31,13,11,11.40
2022,03,31,13,12,11.50
2022,03,31,13,13,11.50
2022,03,31,13,14,11.60
2022,03,31,13,15,11.60
2022,03,31,13,16,11.60
2022,03,31,13,17,11.70
2022,03,31,13,18,11.80
2022,03,31,13,19,11.80
2022,03,31,13,20,11.70
2022,03,31,13,21,11.70
2022,03,31,13,22,11.60
2022,03,31,13,23,11.50
2022,03,31,13,24,11.50
2022,03,31,13,25,11.40
2022,03,31,13,26,11.30
2022,03,31,13,27,11.30
2022,03,31,13,28,11.30
2022,03,31,13,29,11.30
2022,03,31,13,30,11.30
2022,03,31,13,31,11.30
2022,03,31,13,32,11.30
2022,03,31,13,33,11.20
2022,03,31,13,34,11.10
2022,03,31,13,35,11.00
2022,03,31,13,36,10.90
2022,03,31,13,37,10.80
2022,03,31,13,38,10.80
2022,03,31,13,39,10.70
2022,03,31,13,40,10.60
2022,03,31,13,41,10.60
2022,03,31,13,42,10.50
2022,03,31,13,43,10.40
2022,03,31,13,44,10.40
2022,03,31,13,45,10.30
2022,03,31,13,46,10.30
2022,03,31,13,47,10.30
2022,03,31,13,48,10.20
2022,03,31,13,49,10.20
2022,03,31,13,50,10.20
2022,03,31,13,51,10.20
2022,03,31,13,52,10.20
2022,03,31,13,53,10.10
2022,03,31,13,54,10.10
2022,03,31,13,55,10.10
2022,03,31,13,56,10.10
2022,03,31,13,57,10.00
2022,03,31,13,58,10.00
2022,03,31,13,59,10.00
2022,03,31,14,00,9.90
2022,03,31,14,01,9.90
2022,03,31,14,02,9.90
2022,03,31,14,03,9.80
2022,03,31,14,04,9.80
2022,03,31,14,05,9.80
2022,03,31,14,06,9.70
2022,03,31,14,07,9.70
2022,03,31,14,08,9.60
2022,03,31,14,09,9.60
2022,03,31,14,10,9.50
2022,03,31,14,11,9.50
2022,03,31,14,12,9.40
2022,03,31,14,13,9.40
2022,03,31,14,14,9.40
2022,03,31,14,15,9.30
2022,03,31,14,16,9.30
2022,03,31,14,17,9.30
2022,03,31,14,18,9.30
2022,03,31,14,19,9.30
2022,03,31,14,20,9.30
2022,03,31,14,21,9.30
2022,03,31,14,22,9.30
2022,03,31,14,23,9.30
2022,03,31,14,24,9.30
2022,03,31,14,25,9.40
2022,03,31,14,26,9.40
2022,03,31,14,27,9.50
2022,03,31,14,28,9.60
2022,03,31,14,29,9.60
2022,03,31,14,30,9.70
2022,03,31,14,31,9.80
2022,03,31,14,32,9.90
2022,03,31,14,33,10.00
2022,03,31,14,34,10.10
2022,03,31,14,35,10.20
2022,03,31,14,36,10.20
2022,03,31,14,37,10.30
2022,03,31,14,38,10.30
2022,03,31,14,39,10.30
2022,03,31,14,40,10.30
2022,03,31,14,41,10.30
2022,03,31,14,42,10.30
2022,03,31,14,43,10.40
2022,03,31,14,44,10.30
2022,03,31,14,45,10.30
2022,03,31,14,46,10.30
2022,03,31,14,47,10.20
2022,03,31,14,48,10.20
2022,03,31,14,49,10.20
2022,03,31,14,50,10.10
2022,03,31,14,51,10.10
2022,03,31,14,52,10.00
2022,03,31,14,53,10.00
2022,03,31,14,54,9.90
2022,03,31,14,55,9.90
2022,03,31,14,56,9.90
2022,03,31,14,57,9.90
2022,03,31,14,58,9.80
2022,03,31,14,59,9.80
2022,03,31,15,00,9.80
2022,03,31,15,01,9.80
2022,03,31,15,02,9.80
2022,03,31,15,03,9.70
2022,03,31,15,04,9.70
2022,03,31,15,05,9.70
2022,03,31,15,06,9.70
2022,03,31,15,07,9.70
2022,03,31,15,08,9.60
2022,03,31,15,09,9.60
2022,03,31,15,10,9.60
2022,03,31,15,11,9.50
2022,03,31,15,12,9.50
2022,03,31,15,13,9.50
2022,03,31,15,14,9.40
2022,03,31,15,15,9.30
2022,03,31,15,16,9.30
2022,03,31,15,17,9.30
2022,03,31,15,18,9.30
2022,03,31,15,19,9.20
2022,03,31,15,20,9.20
2022,03,31,15,21,9.20
2022,03,31,15,22,9.20
2022,03,31,15,23,9.20
2022,03,31,15,24,9.20
2022,03,31,15,25,9.20
2022,03,31,15,26,9.20
2022,03,31,15,27,9.20
2022,03,31,15,28,9.20
2022,03,31,15,29,9.20
2022,03,31,15,30,9.20
2022,03,31,15,31,9.20
2022,03,31,15,32,9.20
2022,03,31,15,33,9.20
2022,03,31,15,34,9.20
2022,03,31,15,35,9.30
2022,03,31,15,36,9.30
2022,03,31,15,37,9.30
2022,03,31,15,38,9.30
2022,03,31,15,39,9.30
2022,03,31,15,40,9.30
2022,03,31,15,41,9.30
2022,03,31,15,42,9.30
2022,03,31,15,43,9.30
2022,03,31,15,44,9.20
2022,03,31,15,45,9.30
2022,03,31,15,46,9.30
2022,03,31,15,47,9.30
2022,03,31,15,48,9.30
2022,03,31,15,49,9.30
2022,03,31,15,50,9.30
2022,03,31,15,51,9.30
2022,03,31,15,52,9.30
2022,03,31,15,53,9.30
2022,03,31,15,54,9.40
2022,03,31,15,55,9.50
2022,03,31,15,56,9.60
2022,03,31,15,57,9.70
2022,03,31,15,58,9.80
2022,03,31,15,59,9.90
2022,03,31,16,00,10.00
2022,03,31,16,01,10.10
2022,03,31,16,02,10.20
2022,03,31,16,03,10.30
2022,03,31,16,04,10.40
2022,03,31,16,05,10.50
2022,03,31,16,06,10.60
2022,03,31,16,07,10.70
2022,03,31,16,08,10.70
2022,03,31,16,09,10.80
2022,03,31,16,10,10.80
2022,03,31,16,11,10.90
2022,03,31,16,12,10.90
2022,03,31,16,13,11.00
2022,03,31,16,14,11.00
2022,03,31,16,15,11.00
2022,03,31,16,16,11.10
2022,03,31,16,17,11.10
2022,03,31,16,18,11.10
2022,03,31,16,19,11.10
2022,03,31,16,20,11.10
2022,03,31,16,21,11.10
2022,03,31,16,22,11.10
2022,03,31,16,23,11.10
2022,03,31,16,24,11.20
2022,03,31,16,25,11.20
2022,03,31,16,26,11.20
2022,03,31,16,27,11.30
2022,03,31,16,28,11.30
2022,03,31,16,29,11.30
2022,03,31,16,30,11.40
2022,03,31,16,31,11.40
2022,03,31,16,32,11.40
2022,03,31,16,33,11.40
2022,03,31,16,34,11.30
2022,03,31,16,35,11.30
2022,03,31,16,36,11.30
2022,03,31,16,37,11.30
2022,03,31,16,38,11.30
2022,03,31,16,39,11.30
2022,03,31,16,40,11.30
2022,03,31,16,41,11.30
2022,03,31,16,42,11.30
2022,03,31,16,43,11.30
2022,03,31,16,44,11.40
2022,03,31,16,45,11.50
2022,03,31,16,46,11.60
2022,03,31,16,47,11.70
2022,03,31,16,48,11.80
2022,03,31,16,49,11.90
2022,03,31,16,50,11.90
2022,03,31,16,51,11.90
2022,03,31,16,52,11.80
2022,03,31,16,53,11.80
2022,03,31,16,54,11.80
2022,03,31,16,55,11.70
2022,03,31,16,56,11.70
2022,03,31,16,57,11.60
2022,03,31,16,58,11.60
2022,03,31,16,59,11.60
2022,03,31,17,00,11.60
2022,03,31,17,01,11.60
2022,03,31,17,02,11.60
2022,03,31,17,03,11.60
2022,03,31,17,04,11.60
2022,03,31,17,05,11.60
2022,03,31,17,06,11.60
2022,03,31,17,07,11.70
2022,03,31,17,08,11.70
2022,03,31,17,09,11.70
2022,03,31,17,10,11.70
2022,03,31,17,11,11.80
2022,03,31,17,12,11.80
2022,03,31,17,13,11.90
2022,03,31,17,14,11.90
2022,03,31,17,15,11.90
2022,03,31,17,16,12.00
2022,03,31,17,17,12.10
2022,03,31,17,18,12.10
2022,03,31,17,19,12.10
2022,03,31,17,20,12.20
2022,03,31,17,21,12.10
2022,03,31,17,22,12.10
2022,03,31,17,23,12.00
2022,03,31,17,24,12.00
2022,03,31,17,25,11.90
2022,03,31,17,26,11.90
2022,03,31,17,27,11.80
2022,03,31,17,28,11.70
2022,03,31,17,29,11.50
2022,03,31,17,30,11.40
2022,03,31,17,31,11.20
2022,03,31,17,32,11.20
2022,03,31,17,33,11.20
2022,03,31,17,34,11.20
2022,03,31,17,35,11.10
2022,03,31,17,36,11.00
2022,03,31,17,37,10.90
2022,03,31,17,38,10.90
2022,03,31,17,39,10.90
2022,03,31,17,40,10.90
2022,03,31,17,41,10.90
2022,03,31,17,42,10.80
2022,03,31,17,43,10.80
2022,03,31,17,44,10.70
2022,03,31,17,45,10.70
2022,03,31,17,46,10.70
2022,03,31,17,47,10.60
2022,03,31,17,48,10.60
2022,03,31,17,49,10.50
2022,03,31,17,50,10.50
2022,03,31,17,51,10.40